| time (UTC) | temp F | wind direction | speed knots | gust knots | rain 1hr in | rain 24hr in | rain mn in | humidity % | barometer mb |
| 20260502221503 | 54 | 346 | 1.7 | 3.5 | 0.09 | 0.19 | 0.19 | 91 | 1011.2 |
| 20260502220003 | 54 | 347 | 2.6 | 5.2 | 0.08 | 0.15 | 0.16 | 91 | 1011.0 |
| 20260502214503 | 55 | 348 | 2.6 | 5.2 | 0.06 | 0.13 | 0.13 | 91 | 1011.1 |
| 20260502213024 | 55 | 345 | 2.6 | 7.0 | 0.06 | 0.11 | 0.11 | 90 | 1011.1 |
| 20260502211503 | 55 | 343 | 2.6 | 7.0 | 0.06 | 0.09 | 0.09 | 90 | 1011.2 |
| 20260502210003 | 55 | 316 | 2.6 | 4.3 | 0.05 | 0.07 | 0.07 | 89 | 1011.4 |
| 20260502204503 | 55 | 296 | 1.7 | 3.5 | 0.05 | 0.06 | 0.06 | 88 | 1011.6 |
| 20260502203003 | 56 | 273 | 2.6 | 3.5 | 0.04 | 0.05 | 0.05 | 87 | 1011.7 |
| 20260502201503 | 56 | 271 | 0.0 | 1.7 | 0.02 | 0.03 | 0.03 | 87 | 1011.9 |
| 20260502200024 | 57 | 268 | 1.7 | 3.5 | 0.02 | 0.02 | 0.02 | 86 | 1011.8 |
| 20260502194503 | 57 | 242 | 1.7 | 3.5 | 0.02 | 0.02 | 0.02 | 84 | 1012.0 |
| 20260502193003 | 58 | 173 | 0.9 | 2.6 | 0.01 | 0.01 | 0.01 | 83 | 1011.9 |
| 20260502191503 | 58 | 172 | 0.9 | 1.7 | 0.01 | 0.01 | 0.01 | 81 | 1011.9 |
| 20260502190003 | 59 | 171 | 0.9 | 2.6 | 0.01 | 0.01 | 0.01 | 79 | 1012.0 |
| 20260502184503 | 60 | 253 | 0.9 | 2.6 | 0.00 | 0.00 | 0.00 | 75 | 1012.1 |
| 20260502183003 | 60 | 287 | 1.7 | 3.5 | 0.00 | 0.00 | 0.00 | 71 | 1012.1 |
| 20260502181503 | 61 | 305 | 1.7 | 3.5 | 0.00 | 0.01 | 0.00 | 67 | 1012.1 |
| 20260502163003 | 63 | 214 | 0.9 | 4.3 | 0.00 | 0.08 | 0.00 | 61 | 1012.8 |
| 20260502161524 | 63 | 197 | 1.7 | 4.3 | 0.00 | 0.08 | 0.00 | 60 | 1012.8 |
| 20260502151503 | 64 | 151 | 1.7 | 4.3 | 0.00 | 0.08 | 0.00 | 58 | 1013.7 |
| 20260502123003 | 64 | 198 | 2.6 | 7.0 | 0.00 | 0.08 | 0.00 | 60 | 1015.2 |
| 20260502121503 | 62 | 252 | 2.6 | 7.0 | 0.00 | 0.08 | 0.00 | 65 | 1015.4 |
| 20260502114503 | 62 | 216 | 3.5 | 8.7 | 0.00 | 0.08 | 0.00 | 65 | 1016.0 |
| 20260502113003 | 62 | 200 | 3.5 | 8.7 | 0.00 | 0.08 | 0.00 | 67 | 1016.3 |
| 20260502111524 | 61 | 164 | 3.5 | 7.0 | 0.00 | 0.08 | 0.00 | 69 | 1016.4 |
| 20260502110024 | 60 | 176 | 2.6 | 6.1 | 0.00 | 0.08 | 0.00 | 72 | 1016.3 |
| 20260502104524 | 59 | 120 | 1.7 | 6.1 | 0.00 | 0.08 | 0.00 | 74 | 1016.4 |
| 20260502103024 | 58 | 256 | 1.7 | 3.5 | 0.00 | 0.08 | 0.00 | 76 | 1016.7 |
| 20260502101503 | 58 | 209 | 1.7 | 5.2 | 0.00 | 0.08 | 0.00 | 74 | 1016.4 |
| 20260502091503 | 57 | 290 | 0.9 | 4.3 | 0.00 | 0.08 | 0.00 | 80 | 1017.4 |
| 20260502071503 | 50 | 194 | 1.7 | 5.2 | 0.00 | 0.08 | 0.00 | 96 | 1017.5 |
| 20260502070003 | 49 | 204 | 0.9 | 1.7 | 0.00 | 0.08 | 0.00 | 96 | 1017.4 |
| 20260502064503 | 47 | 175 | 0.0 | 1.7 | 0.00 | 0.08 | 0.00 | 96 | 1017.5 |
| 20260502063024 | 46 | 151 | 0.0 | 1.7 | 0.00 | 0.08 | 0.00 | 96 | 1017.5 |
| 20260502061503 | 46 | 263 | 0.0 | 0.9 | 0.00 | 0.08 | 0.00 | 96 | 1017.5 |
| 20260502060003 | 46 | 311 | 0.0 | 1.7 | 0.00 | 0.08 | 0.00 | 95 | 1017.4 |
| 20260502054503 | 46 | 293 | 0.9 | 1.7 | 0.00 | 0.08 | 0.00 | 95 | 1017.3 |
| 20260502053003 | 46 | 24 | 0.0 | 1.7 | 0.00 | 0.08 | 0.00 | 96 | 1017.2 |
| 20260502051502 | 45 | 345 | 0.9 | 1.7 | 0.00 | 0.08 | 0.00 | 95 | 1017.3 |
| 20260502050003 | 45 | 243 | 0.9 | 2.6 | 0.00 | 0.08 | 0.00 | 95 | 1017.2 |
| 20260502044503 | 45 | 219 | 0.9 | 1.7 | 0.00 | 0.08 | 0.00 | 95 | 1017.3 |
| 20260502043003 | 45 | 210 | 0.9 | 2.6 | 0.00 | 0.08 | 0.00 | 95 | 1017.3 |
| 20260502041503 | 45 | 211 | 1.7 | 2.6 | 0.00 | 0.08 | 0.00 | 95 | 1017.3 |
| 20260502040003 | 45 | 210 | 1.7 | 2.6 | 0.00 | 0.08 | 0.00 | 95 | 1017.4 |
| 20260502034503 | 45 | 210 | 0.9 | 2.6 | 0.00 | 0.08 | 0.00 | 95 | 1017.5 |
| 20260502033003 | 46 | 211 | 0.9 | 3.5 | 0.00 | 0.08 | 0.00 | 95 | 1017.6 |
| 20260502031503 | 46 | 211 | 0.9 | 2.6 | 0.00 | 0.08 | 0.00 | 95 | 1017.6 |
| 20260502030024 | 46 | 211 | 0.9 | 3.5 | 0.00 | 0.08 | 0.00 | 95 | 1017.6 |
| 20260502024503 | 46 | 211 | 1.7 | 2.6 | 0.00 | 0.08 | 0.00 | 95 | 1017.6 |
| 20260502021503 | 47 | 211 | 0.9 | 2.6 | 0.00 | 0.08 | 0.00 | 95 | 1017.7 |
| 20260502020003 | 47 | 211 | 1.7 | 2.6 | 0.00 | 0.08 | 0.00 | 95 | 1017.9 |
| 20260502014524 | 48 | 211 | 0.9 | 3.5 | 0.00 | 0.08 | 0.00 | 95 | 1018.1 |
| 20260502013003 | 48 | 211 | 2.6 | 5.2 | 0.00 | 0.08 | 0.00 | 95 | 1018.2 |
| 20260502011503 | 48 | 213 | 3.5 | 5.2 | 0.00 | 0.08 | 0.00 | 95 | 1018.3 |
| 20260502010003 | 49 | 259 | 0.9 | 3.5 | 0.00 | 0.08 | 0.00 | 95 | 1018.4 |
| 20260502004524 | 49 | 259 | 1.7 | 3.5 | 0.00 | 0.08 | 0.00 | 95 | 1018.5 |
| 20260502003003 | 50 | 259 | 1.7 | 3.5 | 0.00 | 0.08 | 0.00 | 95 | 1018.7 |
| 20260502001503 | 51 | 259 | 1.7 | 3.5 | 0.00 | 0.08 | 0.00 | 95 | 1018.7 |
| 20260502000003 | 51 | 260 | 0.9 | 3.5 | 0.00 | 0.08 | 0.00 | 95 | 1018.8 |
| 20260501234503 | 51 | 260 | 1.7 | 2.6 | 0.00 | 0.08 | 0.00 | 94 | 1018.9 |
| 20260501233024 | 51 | 260 | 0.9 | 2.6 | 0.00 | 0.08 | 0.00 | 94 | 1018.9 |
| 20260501231503 | 52 | 260 | 0.9 | 1.7 | 0.00 | 0.08 | 0.00 | 94 | 1018.9 |
| 20260501230003 | 52 | 260 | 0.9 | 1.7 | 0.00 | 0.08 | 0.00 | 94 | 1018.9 |
| 20260501224524 | 52 | 260 | 0.0 | 0.9 | 0.00 | 0.08 | 0.08 | 94 | 1019.0 |
| 20260501223003 | 53 | 260 | 0.0 | 0.9 | 0.00 | 0.08 | 0.08 | 94 | 1018.8 |